User: anonymous   Login
Location: Unspecified
(0.0000°N, 0.0000°E)
Time: 18:22:58
(UTC+00:00)
Language:

STARLINK-6294 - Orbit

View from above orbital plane
View from above orbital plane
View from above satellite
View from above satellite

Ground track
Ground track

The orbit is defined by the following mean orbital elements,

1 57225U          26144.88360249 +.00000000 +00000-0 +21646-4 0 00004
2 57225  43.0056 320.8194 0001595 271.3941  88.6728 15.27577552    00
Epoch (UTC): 24 May 2026 21:12:23
Eccentricity: 0.0001595
inclination: 43.0056°
perigee height: 482 km
apogee height: 484 km
right ascension of ascending node: 320.8194°
argument of perigee: 271.3941°
revolutions per day: 15.27577552
mean anomaly at epoch: 88.6728°

The dashed part of the orbit path shows where the satellite is in the earth's shadow,  

DLR